Location: ???????????
(54.5822°N, 39.1075°E)
Time: 11:03:34
(UTC+00:00)

Cosmos 1975 - Pass Details

Date: 19 May 2025
Orbit: 487 x 506 km, 82.5° (Epoch: 13 June)

Event Time Altitude Azimuth Distance (km) Brightness Sun altitude
Rises 19:31:18 0° 353° (N) 2,580 7.8 -11.9°
Reaches altitude 10° 19:33:32 10° 3° (N) 1,691 6.3 -12.1°
Maximum altitude 19:36:59 36° 71° (ENE) 793 3.6 -12.3°
Enters shadow 19:39:16 18° 130° (SE) 1,267 4.1 -12.4°
